This is the latest recevied weather packets stored in our database for station/object IR2UAZ. If no packets are shown the sender has not sent any weather packets the latest 10 day(s).
| Time | Temp. | Humidity | Pressure | Rain* | Wind** | Luminosity | Snow |
|---|---|---|---|---|---|---|---|
| 1778004622 | 8.89° C | 67% | 1006.2 hPa | - | - | - | - |
| 1778004614 | 8.89° C | 67% | 1006.2 hPa | - | - | - | - |
| 1778004606 | 8.89° C | 67% | 1006.2 hPa | - | - | - | - |
| 1778004597 | 8.89° C | 67% | 1006.3 hPa | - | - | - | - |
| 1778004588 | 8.89° C | 66% | 1006.4 hPa | - | - | - | - |
| 1778004580 | 8.89° C | 67% | 1006.4 hPa | - | - | - | - |
| 1778004571 | 8.89° C | 66% | 1006.3 hPa | - | - | - | - |
| 1778004563 | 8.89° C | 66% | 1006.4 hPa | - | - | - | - |
| 1778004554 | 8.89° C | 66% | 1006.3 hPa | - | - | - | - |
| 1778004546 | 8.89° C | 66% | 1006.4 hPa | - | - | - | - |
| 1778004537 | 8.89° C | 65% | 1006.4 hPa | - | - | - | - |
| 1778004529 | 8.89° C | 65% | 1006.5 hPa | - | - | - | - |
| 1778004520 | 8.89° C | 65% | 1006.5 hPa | - | - | - | - |
| 1778004512 | 8.89° C | 64% | 1006.3 hPa | - | - | - | - |
| 1778004504 | 8.89° C | 63% | 1006.5 hPa | - | - | - | - |
| 1778004495 | 9.44° C | 63% | 1006.5 hPa | - | - | - | - |
| 1778004487 | 8.89° C | 62% | 1006.4 hPa | - | - | - | - |
| 1778004343 | 9.44° C | 61% | 1006.2 hPa | - | - | - | - |
| 1778004334 | 9.44° C | 61% | 1006.3 hPa | - | - | - | - |
| 1778004028 | 8.89° C | 67% | 1006.1 hPa | - | - | - | - |
| 1778003898 | 9.44° C | 60% | 1006.1 hPa | - | - | - | - |
| 1778002828 | 8.89° C | 67% | 1006.2 hPa | - | - | - | - |
| 1778001629 | 8.89° C | 67% | 1006.2 hPa | - | - | - | - |
| 1778000426 | 8.89° C | 67% | 1006.2 hPa | - | - | - | - |
| 1777999225 | 8.89° C | 67% | 1006.2 hPa | - | - | - | - |
* Rain since midnight (hover to see other rain measurements)
** Current wind speed in m/s (hover to see current wind gust speed)